Location: ????????
(55.0097°N, 38.5678°E)
Time: 06:26:46
(UTC+00:00)

Cosmos 972 Rocket - Visible Passes

Search period start: 16 July 2024 00:00
Search period end: 26 July 2024 00:00
Orbit: 713 x 1150 km, 75.8° (Epoch: 15 July)

Date Brightness Start Highest point End Pass type
(mag) Time Alt. Az. Time Alt. Az. Time Alt. Az.
16 Jul 6.3 18:52:15 10° NW 18:58:21 31° W 19:04:04 10° SSW visible
17 Jul 6.7 19:04:58 10° NW 19:10:16 23° W 19:15:19 10° SW visible
18 Jul 6.9 19:17:56 10° NW 19:22:08 17° W 19:26:10 10° WSW visible
19 Jul 7.2 19:31:33 10° WNW 19:33:54 12° W 19:36:12 10° W visible
23 Jul 7.1 18:34:24 10° NW 18:38:01 15° W 18:41:27 10° WSW visible
24 Jul 7.5 18:49:01 10° WNW 18:49:45 10° WNW 18:50:28 10° W visible
